Flag for Norway Weather past 2 weeks in Gjøvik, Norway

Now
28 °F

Chilly.


Feels Like: 28 °F
Forecast: 31 / 35 °F
Wind: 2 mph from Southwest

Location: Lillehammer-Saetherengen

Current Time: Feb 28, 2015 at 2:15:05 AM

Latest Report: Feb 28, 2015 at 1:00 AM


Visibility: N/A

Pressure: 29.81 "Hg

Humidity: 91%

Dew point: 26 °F

Location of GjøvikLocation

Historic Weather in Gjøvik — Graph

°F

Gjøvik temperature yesterday

Maximum temperature yesterday: 39 °F (at 2:00 PM)
Minimum temperature yesterday: 31 °F (at 11:00 PM)
Average temperature yesterday: 35 °F

Past Weeks' High & Low Weather Summary

 TemperatureHumidityPressure
High49 °F (Feb 19, 2:00 PM)98% (Feb 25, 7:00 AM)30.55 "Hg (Feb 25, 7:00 AM)
Low17 °F (Feb 22, 10:00 PM)41% (Feb 20, 2:00 PM)28.94 "Hg (Feb 23, 12:00 PM)
Average31 °F86%29.70 "Hg
* Reported Feb 13 1:00 AM — Feb 28 1:00 AM, Gjøvik, Weather by CustomWeather, © 2015

Note: Actual official high and low records may vary slightly from our data, if they occured in-between our weather recording intervals... More about our weather records

Advertising

Gjøvik weather history for previous 24 hours

 ConditionsComfort  
Time TempWeatherWind HumidityBarometerVisibility
1:00 AM
Sat, Feb 28
28 °FChilly.2 mph91%29.81 "HgN/A
12:00 AM29 °FChilly.1 mph91%29.81 "HgN/A
11:00 PM
Fri, Feb 27
31 °FChilly.2 mph88%29.80 "HgN/A
10:00 PM33 °FChilly.3 mph82%29.80 "HgN/A
9:00 PM34 °FChilly.3 mph81%29.79 "HgN/A
8:00 PM34 °FChilly.5 mph84%29.78 "HgN/A
7:00 PM35 °FChilly.5 mph81%29.77 "HgN/A
6:00 PM34 °FChilly.3 mph86%29.77 "HgN/A
5:00 PM36 °FChilly.3 mph77%29.75 "HgN/A
4:00 PM38 °FChilly.2 mph73%29.74 "HgN/A
3:00 PM38 °FChilly.3 mph74%29.73 "HgN/A
2:00 PM39 °FChilly.3 mph73%29.71 "HgN/A
1:00 PM37 °FChilly.3 mph79%29.72 "HgN/A
12:00 PM36 °FChilly.3 mph83%29.70 "HgN/A
11:00 AM35 °FChilly.3 mph87%29.70 "HgN/A
10:00 AM35 °FChilly.2 mph91%29.70 "HgN/A
9:00 AM33 °FChilly.2 mph91%29.70 "HgN/A
8:00 AM34 °FChilly.5 mph91%29.67 "HgN/A
7:00 AM34 °FChilly.5 mph91%29.67 "HgN/A
6:00 AM35 °FChilly.6 mph91%29.66 "HgN/A
5:00 AM35 °FChilly.6 mph90%29.65 "HgN/A
2:00 AM35 °FChilly.6 mph91%29.66 "HgN/A
Weather by CustomWeather, © 2015

See weather overviewHow to use our weather pages